[Iaude] MPEC T17: 2016 TK [a=1.33,e=0.26,i=9.8,H=23.0]

mpec at si.edu mpec at si.edu
Sun Oct 2 23:41:47 EDT 2016


M.P.E.C. 2016-T17                                Issued 2016 Oct. 3, 03:37 UT
 
     The Minor Planet Electronic Circulars contain information on unusual
         minor planets and routine data on comets.  They are published
    on behalf of Division F of the International Astronomical Union by the
          Minor Planet Center, Smithsonian Astrophysical Observatory,
                          Cambridge, MA 02138, U.S.A.

             Prepared using the Tamkin Foundation Computer Network

                              MPC at CFA.HARVARD.EDU
            URL http://www.minorplanetcenter.net/    ISSN 1523-6714


                                    2016 TK
 
Observations:
     K16T00K* C2016 10 01.44964 03 33 46.37 +04 37 55.9                qET017G96
     K16T00K  C2016 10 01.45392 03 33 47.78 +04 37 39.1          20.4 VqET017G96
     K16T00K  C2016 10 01.45821 03 33 49.19 +04 37 22.8          20.6 VqET017G96
     K16T00K  C2016 10 01.46249 03 33 50.55 +04 37 06.7          20.9 VqET017G96
     K16T00K  C2016 10 01.50074 03 34 03.06 +04 34 41.8          20.6 VqET017G96
     K16T00K  C2016 10 01.50269 03 34 03.78 +04 34 33.8          20.2 VqET017G96
     K16T00K  C2016 10 01.50524 03 34 04.49 +04 34 25.1          21.1 VqET017G96
     K16T00K  C2016 10 01.50774 03 34 05.37 +04 34 15.6          20.9 VqET017G96
     K16T00K KC2016 10 02.12620 03 37 41.79 +03 54 19.7                qET017J95
     K16T00K KC2016 10 02.13510 03 37 44.86 +03 53 44.5                qET017J95
     K16T00K KC2016 10 02.14406 03 37 47.78 +03 53 09.9          20.3 RqET017J95
     K16T00K  C2016 10 02.29700203 38 44.08 +03 43 23.3          20.7 VtET017H01
     K16T00K  C2016 10 02.30204103 38 45.77 +03 43 03.5          20.8 VtET017H01
     K16T00K  C2016 10 02.31054403 38 48.63 +03 42 30.0          20.8 VtET017H01
     K16T00K  C2016 10 02.32289003 38 52.78 +03 41 41.6          20.7 VtET017H01
     K16T00K  C2016 10 02.42973 03 39 28.59 +03 34 42.7          20.5 RoET017926
     K16T00K  C2016 10 02.43322 03 39 29.76 +03 34 29.0          20.7 RoET017926
     K16T00K  C2016 10 02.43669 03 39 30.80 +03 34 16.2          21.1 RoET017926
     K16T00K  C2016 10 02.45444 03 39 36.78 +03 33 03.8          20.3 VqET017G96
     K16T00K  C2016 10 02.46137 03 39 39.13 +03 32 36.2          20.3 VqET017G96
     K16T00K  C2016 10 02.46822 03 39 41.39 +03 32 09.2          21.1 VqET017G96
     K16T00K KC2016 10 03.11945 03 43 34.34 +02 48 16.0                qET017J95
     K16T00K KC2016 10 03.12867 03 43 37.55 +02 47 37.8          20.6 RqET017J95
 
Observer details:
926 Tenagra II Observatory.  Observers M. Schwartz, P. R. Holvorcem.  Measurer
    M. Schwartz.  0.81-m f/7 Ritchey-Chretien + CCD.
G96 Mt. Lemmon Survey.  Observers D. C. Fuls, A. D. Grauer.  Measurers
    E. J. Christensen, D. C. Fuls, A. R. Gibbs, A. D. Grauer, J. A. Johnson,
    R. A. Kowalski, S. M. Larson, G. J. Leonard, R. G. Matheny, R. L. Seaman,
    F. C. Shelly.  1.5-m reflector + 10K CCD.
H01 Magdalena Ridge Observatory, Socorro.  Observers W. H. Ryan, E. V. Ryan.
    Measurer W. H. Ryan.  2.4-m f/8.9 reflector + CCD.
J95 Great Shefford.  Observer P. Birtwhistle.  0.40-m f/6.0 Schmidt-Cassegrain
    + CCD.
 
Orbital elements:
2016 TK                                                  Earth MOID = 0.0987 AU
Epoch 2016 July 31.0 TT = JDT 2457600.5                 MPC
M 278.85236              (2000.0)            P               Q
n   0.64603707     Peri.  257.66793     +0.17165570     -0.98512961
a   1.3252498      Node   182.48361     +0.95687939     +0.16849776
e   0.2645810      Incl.    9.76061     +0.23434196     +0.03358801
P   1.53           H   23.0           G   0.15           U   8
Residuals in seconds of arc
161001 G96  0.7-  0.4+    161002 J95  0.5-  0.0     161002 926  0.2+  0.1+
161001 G96  0.4-  0.2-    161002 J95  0.8+  0.4-    161002 926  1.4-  1.1+
161001 G96  0.1-  0.2-    161002 J95  0.5-  0.0     161002 G96  0.2-  0.1-
161001 G96  0.5-  0.1-    161002 H01  0.3+  0.0     161002 G96  0.4+  0.2-
161001 G96  0.4+  0.3+    161002 H01  0.1+  0.0     161002 G96  0.1+  0.0
161001 G96  1.7+  0.3-    161002 H01  0.1+  0.2-    161003 J95  0.2-  0.4+
161001 G96  0.2-  0.7+    161002 H01  0.2+  0.1-    161003 J95  0.4+  0.2-
161001 G96  0.8+  0.7+    161002 926  0.1+  0.0

Ephemeris:
2016 TK                  a,e,i = 1.33, 0.26, 10                  q = 0.9746
Date    TT    R. A. (2000) Decl.     Delta      r     Elong.  Phase     V
2016 09 03    01 38 12.2 +18 35 48   0.3017  1.2271   130.7    38.5    22.4
...
2016 09 18    02 28 51.3 +14 35 41   0.2122  1.1661   135.7    37.0    21.5
...
2016 09 26    03 04 38.6 +09 38 25   0.1741  1.1345   136.1    37.8    21.0
...
2016 10 02    03 36 57.4 +04 03 17   0.1514  1.1116   134.1    40.3    20.7
2016 10 03    03 42 51.1 +02 57 09   0.1482  1.1079   133.5    40.9    20.7
2016 10 04    03 48 53.8 +01 48 08   0.1452  1.1042   132.9    41.6    20.7
...
2016 10 10    04 28 17.7 -05 59 48   0.1311  1.0827   127.1    47.4    20.5
...
2016 10 18    05 27 58.5 -17 34 12   0.1239  1.0559   115.7    58.2    20.7
...
2016 11 02    07 23 39.7 -34 00 31   0.1406  1.0139    94.9    77.2    21.5

A. U. Tomatic                (C) Copyright 2016 MPC           M.P.E.C. 2016-T17




More information about the Iaude mailing list